Voltar ao catálogo

STARLINK-33666

AtivoComunicaçõesVLEO
NORAD 63592·PAYLOAD·🇺🇸 United States

Lançado Apr 14, 2025 de Cape Canaveral Space Force Station

Loading…

Próximas Passagens (próximas 24 horas)

TLE

AtualizadoSource: CelesTrak SupGP

Época: Sep 15, 2026, 03:14 UTC

1 63592C 25076Z   26258.13520833  .00047508  00000+0  17224-2 0  2582
2 63592  43.0017 331.9710 0001834 250.6753  39.5041 15.27523561    10

Acompanhe STARLINK-33666 em tempo real com AllMySat

Download on the App Store